QPF
0.00 0.00 0.00 0.00 0.00 0.00 0.00 0.00 0.00 0.00 0.00 0.00 0.00 0.00 0.00 0.00 0.00 0.00 0.00 0.00 0.00 0.00 0.00 0.00 0.00 0.00 0.00 0.00 0.00 0.00 0.00 0.00 0.00 0.00 0.00 0.00 0.00 0.00 0.00 0.00 0.00 0.00 0.00
0.00 0.00 0.00 0.00 0.00 0.00 0.00 0.00 0.00 0.00 0.00 0.00 0.00 0.00 0.00 0.00 0.00 0.00 0.00 0.00 0.00 0.00 0.00 0.00 0.00 0.00 0.00 0.00 0.00 0.00 0.00 0.00 0.00 0.00 0.00 0.00 0.00 0.00 0.00 0.00 0.00 0.00 0.00
0.00 0.00 0.00 0.00 0.00 0.00 0.00 0.00 0.00 0.00 0.00 0.00 0.00 0.00 0.00 0.00 0.00 0.00 0.00 0.00 0.00 0.00 0.00 0.00 0.00 0.00 0.00 0.00 0.00 0.00 0.00 0.00 0.00 0.00 0.00 0.00 0.00 0.00 0.00 0.00 0.00 0.00 0.00
0.00 0.00 0.00 0.00 0.00 0.00 0.00 0.00 0.00 0.00 0.00 0.00 0.00 0.00 0.00 0.00 0.00 0.00 0.00 0.00 0.00 0.00 0.00 0.00 0.00 0.00 0.00 0.00 0.00 0.00 0.00 0.00 0.00 0.00 0.00 0.00 0.00 0.00 0.00 0.00 0.00 0.00 0.00
0.00 0.00 0.00 0.00 0.00 0.00 0.00 0.00 0.00 0.00 0.00 0.00 0.00 0.00 0.00 0.00 0.00 0.00 0.00 0.00 0.00 0.00 0.00 0.00 0.00 0.00 0.00 0.00 0.00 0.00 0.00 0.00 0.00 0.00 0.00 0.00 0.00 0.00 0.00 0.00 0.00 0.00 0.00
0.00 0.00 0.00 0.00 0.00 0.00 0.00 0.00 0.00 0.00 0.00 0.00 0.00 0.00 0.00 0.00 0.00 0.00 0.00 0.00 0.00 0.00 0.00 0.00 0.00 0.00 0.00 0.00 0.00 0.00 0.00 0.00 0.00 0.00 0.00 0.00 0.00 0.00 0.00 0.00 0.00 0.00 0.00
0.00 0.00 0.00 0.00 0.00 0.00 0.00 0.00 0.00 0.00 0.00 0.00 0.00 0.00 0.00 0.00 0.00 0.00 0.00 0.00 0.00 0.00 0.00 0.00 0.00 0.00 0.00 0.00 0.00 0.00 0.00 0.00 0.00 0.00 0.00 0.00 0.00 0.00 0.00 0.00 0.00 0.00 0.00
0.00 0.00 0.00 0.00 0.00 0.00 0.00 0.00 0.00 0.00 0.00 0.00 0.00 0.00 0.00 0.00 0.00 0.00 0.00 0.00 0.00 0.00 0.00 0.00 0.00 0.00 0.00 0.00 0.00 0.00 0.00 0.00 0.00 0.00 0.00 0.00 0.00 0.00 0.00 0.00 0.00 0.00 0.00
0.00 0.00 0.00 0.00 0.00 0.00 0.00 0.00 0.00 0.00 0.00 0.00 0.00 0.00 0.00 0.00 0.00 0.00 0.00 0.00 0.00 0.00 0.00 0.00 0.00 0.00 0.00 0.00 0.00 0.00 0.00 0.00 0.00 0.00 0.00 0.00 0.00 0.00 0.00 0.00 0.00 0.00 0.00
0.00 0.00 0.00 0.00 0.00 0.00 0.00 0.00 0.00 0.00 0.00 0.00 0.00 0.00 0.00 0.00 0.00 0.00 0.00 0.00 0.00 0.00 0.00 0.00 0.00 0.00 0.00 0.00 0.00 0.00 0.00 0.00 0.00 0.00 0.00 0.00 0.00 0.00 0.00 0.00 0.00 0.00 0.00
0.00 0.00 0.00 0.00 0.00 0.00 0.00 0.00 0.00 0.00 0.00 0.00 0.00 0.00 0.00 0.00 0.00 0.00 0.00 0.00 0.00 0.00 0.00 0.00 0.00 0.00 0.00 0.00 0.00 0.00 0.00 0.00 0.00 0.00 0.00 0.00 0.00 0.00 0.00 0.00 0.00 0.00 0.00
0.00 0.00 0.00 0.00 0.00 0.00 0.00 0.00 0.00 0.00 0.00 0.00 0.00 0.00 0.00 0.00 0.00 0.00 0.00 0.00 0.00 0.00 0.00 0.00 0.00 0.00 0.00 0.00 0.00 0.00 0.00 0.00 0.00 0.00 0.00 0.00 0.00 0.00 0.00 0.00 0.00 0.00 0.00
0.00 0.00 0.00 0.00 0.00 0.00 0.00 0.00 0.00 0.00 0.00 0.00 0.00 0.00 0.00 0.00 0.00 0.00 0.00 0.00 0.00 0.00 0.00 0.00 0.00 0.00 0.00 0.00 0.00 0.00 0.00 0.00 0.00 0.00 0.00 0.00 0.00 0.00 0.00 0.00 0.00 0.00 0.00
0.00 0.00 0.00 0.00 0.00 0.00 0.00 0.00 0.00 0.00 0.00 0.00 0.00 0.00 0.00 0.00 0.00 0.00 0.00 0.00 0.00 0.00 0.00 0.00 0.00 0.00 0.00 0.00 0.00 0.00 0.00 0.00 0.00 0.00 0.00 0.00 0.00 0.00 0.00 0.00 0.00 0.00 0.00
0.00 0.00 0.00 0.00 0.00 0.00 0.00 0.00 0.00 0.00 0.00 0.00 0.00 0.00 0.00 0.00 0.00 0.00 0.00 0.00 0.00 0.00 0.00 0.00 0.00 0.00 0.00 0.00 0.00 0.00 0.00 0.00 0.00 0.00 0.00 0.00 0.00 0.00 0.00 0.00 0.00 0.00 0.01
0.00 0.00 0.00 0.00 0.00 0.00 0.00 0.00 0.00 0.00 0.00 0.00 0.00 0.00 0.00 0.00 0.00 0.00 0.00 0.00 0.00 0.00 0.00 0.00 0.00 0.00 0.00 0.00 0.00 0.00 0.00 0.00 0.00 0.00 0.00 0.00 0.00 0.00 0.00 0.01 0.01 0.01 0.01
0.00 0.00 0.00 0.00 0.00 0.00 0.00 0.00 0.00 0.00 0.00 0.00 0.00 0.00 0.00 0.00 0.00 0.00 0.00 0.00 0.00 0.00 0.00 0.00 0.00 0.00 0.00 0.00 0.00 0.00 0.00 0.00 0.00 0.00 0.00 0.00 0.00 0.00 0.00 0.00 0.01 0.02 0.02
0.00 0.00 0.00 0.00 0.00 0.00 0.00 0.00 0.00 0.00 0.00 0.00 0.00 0.00 0.00 0.00 0.00 0.00 0.00 0.00 0.00 0.00 0.00 0.00 0.00 0.00 0.00 0.00 0.00 0.01 0.00 0.00 0.00 0.00 0.00 0.00 0.00 0.00 0.00 0.01 0.01 0.01 0.01
0.00 0.00 0.00 0.00 0.00 0.00 0.00 0.00 0.00 0.00 0.00 0.00 0.00 0.00 0.00 0.00 0.00 0.00 0.00 0.00 0.00 0.00 0.00 0.00 0.00 0.00 0.00 0.00 0.00 0.01 0.00 0.00 0.00 0.00 0.00 0.00 0.00 0.01 0.01 0.02 0.02 0.01 0.01
0.00 0.00 0.00 0.00 0.00 0.00 0.00 0.00 0.00 0.00 0.00 0.00 0.00 0.00 0.00 0.00 0.00 0.00 0.00 0.00 0.00 0.00 0.00 0.00 0.00 0.00 0.00 0.00 0.00 0.01 0.00 0.00 0.00 0.00 0.00 0.01 0.01 0.01 0.02 0.03 0.04 0.03 0.02
0.00 0.00 0.00 0.00 0.00 0.00 0.00 0.00 0.00 0.00 0.00 0.00 0.00 0.00 0.00 0.00 0.00 0.00 0.00 0.00 0.00 0.00 0.00 0.00 0.00 0.00 0.00 0.00 0.00 0.01 0.01 0.01 0.01 0.01 0.01 0.01 0.01 0.02 0.03 0.04 0.04 0.03 0.02
0.00 0.00 0.00 0.00 0.00 0.00 0.00 0.00 0.00 0.00 0.00 0.00 0.00 0.00 0.00 0.00 0.00 0.00 0.00 0.00 0.00 0.00 0.00 0.00 0.00 0.00 0.00 0.00 0.00 0.01 0.02 0.02 0.02 0.02 0.01 0.01 0.01 0.02 0.03 0.04 0.04 0.04 0.05
0.00 0.00 0.00 0.00 0.00 0.00 0.00 0.00 0.00 0.00 0.00 0.00 0.00 0.00 0.00 0.00 0.00 0.00 0.00 0.00 0.00 0.00 0.00 0.00 0.00 0.00 0.00 0.00 0.01 0.01 0.01 0.02 0.01 0.01 0.01 0.02 0.03 0.03 0.03 0.03 0.05 0.05 0.07
0.00 0.00 0.00 0.00 0.00 0.00 0.00 0.00 0.00 0.00 0.00 0.00 0.00 0.00 0.00 0.00 0.00 0.00 0.00 0.00 0.00 0.00 0.01 0.01 0.02 0.01 0.01 0.01 0.01 0.01 0.01 0.01 0.01 0.01 0.02 0.02 0.02 0.02 0.02 0.02 0.03 0.04 0.06
0.00 0.00 0.00 0.00 0.00 0.00 0.00 0.00 0.00 0.00 0.00 0.00 0.00 0.00 0.00 0.00 0.00 0.00 0.00 0.00 0.00 0.01 0.02 0.03 0.03 0.03 0.03 0.02 0.03 0.03 0.03 0.03 0.03 0.03 0.03 0.03 0.02 0.03 0.03 0.02 0.02 0.03 0.04
0.00 0.00 0.00 0.00 0.00 0.00 0.00 0.00 0.00 0.00 0.00 0.00 0.00 0.00 0.00 0.00 0.00 0.00 0.00 0.00 0.00 0.01 0.01 0.01 0.02 0.02 0.02 0.03 0.03 0.03 0.03 0.03 0.04 0.04 0.04 0.03 0.02 0.02 0.02 0.02 0.02 0.02 0.03
MSLP
1015.44 1015.29 1015.19 1015.13 1015.14 1015.24 1015.43 1015.72 1016.10 1016.56 1017.07 1017.60 1018.12 1018.59 1019.00 1019.34 1019.61 1019.83 1020.02 1020.21 1020.41 1020.66 1020.95 1021.30 1021.70 1022.12 1022.56 1022.99 1023.38 1023.71 1023.95 1024.10 1024.15 1024.10 1023.96 1023.75 1023.49 1023.21 1022.95 1022.72 1022.54 1022.43 1022.38
1015.89 1015.77 1015.67 1015.60 1015.55 1015.57 1015.67 1015.87 1016.17 1016.56 1017.01 1017.50 1017.98 1018.41 1018.77 1019.05 1019.25 1019.40 1019.50 1019.60 1019.73 1019.91 1020.15 1020.45 1020.81 1021.21 1021.62 1022.02 1022.38 1022.69 1022.92 1023.07 1023.13 1023.10 1022.99 1022.81 1022.58 1022.32 1022.06 1021.82 1021.63 1021.50 1021.43
1016.24 1016.18 1016.11 1016.03 1015.96 1015.93 1015.96 1016.08 1016.30 1016.61 1017.00 1017.43 1017.85 1018.23 1018.53 1018.75 1018.88 1018.93 1018.96 1018.98 1019.03 1019.14 1019.31 1019.56 1019.86 1020.20 1020.55 1020.90 1021.22 1021.49 1021.71 1021.86 1021.95 1021.98 1021.93 1021.81 1021.65 1021.43 1021.20 1020.97 1020.76 1020.60 1020.50
1016.45 1016.46 1016.45 1016.40 1016.33 1016.27 1016.25 1016.31 1016.46 1016.70 1017.01 1017.36 1017.72 1018.03 1018.26 1018.41 1018.46 1018.44 1018.39 1018.34 1018.32 1018.35 1018.46 1018.63 1018.86 1019.12 1019.40 1019.67 1019.92 1020.16 1020.36 1020.53 1020.66 1020.74 1020.78 1020.76 1020.67 1020.53 1020.34 1020.13 1019.92 1019.73 1019.59
1016.55 1016.64 1016.70 1016.70 1016.65 1016.59 1016.54 1016.54 1016.62 1016.78 1017.01 1017.29 1017.56 1017.80 1017.96 1018.02 1018.01 1017.92 1017.80 1017.68 1017.60 1017.57 1017.60 1017.70 1017.84 1018.01 1018.20 1018.38 1018.57 1018.75 1018.93 1019.10 1019.27 1019.43 1019.55 1019.63 1019.64 1019.58 1019.45 1019.27 1019.06 1018.85 1018.68
1016.56 1016.74 1016.88 1016.93 1016.92 1016.85 1016.78 1016.73 1016.75 1016.83 1016.99 1017.18 1017.37 1017.52 1017.60 1017.61 1017.53 1017.39 1017.21 1017.04 1016.90 1016.81 1016.78 1016.80 1016.85 1016.93 1017.02 1017.11 1017.21 1017.33 1017.48 1017.65 1017.84 1018.05 1018.25 1018.42 1018.52 1018.54 1018.48 1018.34 1018.15 1017.94 1017.74
1016.55 1016.81 1017.00 1017.11 1017.12 1017.05 1016.96 1016.86 1016.82 1016.83 1016.90 1017.01 1017.12 1017.21 1017.23 1017.18 1017.05 1016.87 1016.66 1016.45 1016.27 1016.13 1016.03 1015.98 1015.95 1015.93 1015.92 1015.91 1015.93 1015.97 1016.06 1016.21 1016.41 1016.64 1016.89 1017.12 1017.29 1017.39 1017.39 1017.30 1017.14 1016.95 1016.75
1016.55 1016.85 1017.09 1017.23 1017.25 1017.18 1017.05 1016.92 1016.81 1016.76 1016.76 1016.80 1016.85 1016.87 1016.85 1016.76 1016.60 1016.39 1016.16 1015.93 1015.71 1015.53 1015.38 1015.26 1015.14 1015.04 1014.93 1014.82 1014.74 1014.70 1014.72 1014.82 1014.98 1015.21 1015.47 1015.72 1015.94 1016.09 1016.15 1016.12 1016.01 1015.86 1015.69
1016.58 1016.91 1017.16 1017.30 1017.31 1017.21 1017.06 1016.88 1016.72 1016.61 1016.56 1016.55 1016.56 1016.54 1016.49 1016.38 1016.21 1015.99 1015.74 1015.49 1015.25 1015.03 1014.83 1014.64 1014.45 1014.26 1014.06 1013.86 1013.68 1013.55 1013.48 1013.50 1013.60 1013.78 1014.01 1014.26 1014.48 1014.66 1014.76 1014.79 1014.75 1014.66 1014.55
1016.65 1016.98 1017.22 1017.33 1017.31 1017.18 1016.99 1016.77 1016.57 1016.43 1016.34 1016.29 1016.27 1016.24 1016.17 1016.05 1015.88 1015.65 1015.39 1015.12 1014.86 1014.60 1014.35 1014.10 1013.84 1013.57 1013.28 1012.99 1012.72 1012.49 1012.33 1012.26 1012.27 1012.38 1012.54 1012.74 1012.95 1013.12 1013.26 1013.33 1013.36 1013.35 1013.32
1016.77 1017.07 1017.27 1017.34 1017.28 1017.11 1016.87 1016.62 1016.40 1016.23 1016.12 1016.06 1016.03 1015.99 1015.91 1015.79 1015.60 1015.36 1015.09 1014.79 1014.48 1014.18 1013.88 1013.57 1013.24 1012.90 1012.55 1012.18 1011.83 1011.52 1011.26 1011.09 1011.00 1011.01 1011.09 1011.21 1011.37 1011.53 1011.67 1011.78 1011.87 1011.94 1012.01
1016.93 1017.18 1017.33 1017.35 1017.23 1017.02 1016.76 1016.49 1016.25 1016.07 1015.96 1015.89 1015.84 1015.79 1015.70 1015.55 1015.34 1015.07 1014.76 1014.42 1014.07 1013.71 1013.35 1012.99 1012.61 1012.21 1011.79 1011.37 1010.95 1010.57 1010.23 1009.97 1009.78 1009.68 1009.67 1009.71 1009.80 1009.92 1010.05 1010.18 1010.33 1010.47 1010.63
1017.13 1017.34 1017.42 1017.38 1017.22 1016.98 1016.69 1016.41 1016.17 1015.98 1015.85 1015.77 1015.70 1015.62 1015.49 1015.31 1015.05 1014.73 1014.37 1013.97 1013.56 1013.14 1012.72 1012.30 1011.87 1011.43 1010.97 1010.51 1010.05 1009.61 1009.21 1008.87 1008.61 1008.42 1008.31 1008.26 1008.28 1008.35 1008.45 1008.59 1008.76 1008.96 1009.19
1017.38 1017.53 1017.56 1017.47 1017.27 1017.01 1016.71 1016.42 1016.17 1015.97 1015.82 1015.71 1015.60 1015.46 1015.27 1015.02 1014.69 1014.30 1013.86 1013.40 1012.91 1012.43 1011.95 1011.48 1011.01 1010.54 1010.06 1009.57 1009.09 1008.62 1008.18 1007.79 1007.47 1007.20 1007.01 1006.89 1006.84 1006.85 1006.92 1007.04 1007.22 1007.45 1007.72
1017.67 1017.76 1017.74 1017.60 1017.38 1017.10 1016.80 1016.50 1016.24 1016.02 1015.84 1015.66 1015.48 1015.27 1015.00 1014.65 1014.23 1013.76 1013.24 1012.69 1012.14 1011.60 1011.07 1010.55 1010.05 1009.55 1009.05 1008.55 1008.06 1007.58 1007.13 1006.72 1006.35 1006.04 1005.79 1005.61 1005.50 1005.46 1005.48 1005.57 1005.73 1005.96 1006.25
1017.97 1018.01 1017.94 1017.78 1017.54 1017.24 1016.93 1016.63 1016.35 1016.09 1015.84 1015.60 1015.33 1015.01 1014.63 1014.18 1013.67 1013.10 1012.50 1011.89 1011.27 1010.68 1010.10 1009.55 1009.02 1008.50 1007.99 1007.49 1007.00 1006.51 1006.06 1005.63 1005.25 1004.91 1004.63 1004.41 1004.26 1004.17 1004.15 1004.21 1004.34 1004.54 1004.81
1018.25 1018.24 1018.14 1017.95 1017.69 1017.39 1017.07 1016.75 1016.43 1016.11 1015.79 1015.45 1015.08 1014.65 1014.16 1013.61 1013.01 1012.36 1011.70 1011.03 1010.37 1009.73 1009.12 1008.54 1007.98 1007.44 1006.92 1006.41 1005.91 1005.43 1004.97 1004.54 1004.16 1003.82 1003.53 1003.29 1003.11 1003.00 1002.95 1002.97 1003.06 1003.22 1003.46
1018.49 1018.43 1018.28 1018.07 1017.79 1017.48 1017.14 1016.79 1016.42 1016.04 1015.64 1015.20 1014.72 1014.19 1013.60 1012.97 1012.29 1011.60 1010.89 1010.19 1009.50 1008.84 1008.20 1007.59 1007.00 1006.43 1005.88 1005.35 1004.83 1004.34 1003.88 1003.46 1003.08 1002.75 1002.47 1002.23 1002.05 1001.93 1001.86 1001.86 1001.92 1002.05 1002.24
1018.65 1018.53 1018.35 1018.10 1017.80 1017.46 1017.10 1016.71 1016.29 1015.84 1015.35 1014.82 1014.25 1013.63 1012.97 1012.28 1011.56 1010.84 1010.12 1009.41 1008.72 1008.04 1007.38 1006.74 1006.11 1005.50 1004.91 1004.33 1003.79 1003.28 1002.81 1002.39 1002.02 1001.71 1001.45 1001.23 1001.07 1000.96 1000.89 1000.88 1000.92 1001.02 1001.19
1018.71 1018.54 1018.30 1018.01 1017.68 1017.32 1016.92 1016.48 1016.01 1015.49 1014.93 1014.33 1013.68 1013.01 1012.30 1011.58 1010.86 1010.14 1009.43 1008.72 1008.03 1007.35 1006.67 1005.99 1005.31 1004.65 1004.00 1003.37 1002.78 1002.24 1001.76 1001.34 1000.98 1000.69 1000.46 1000.28 1000.15 1000.06 1000.01 1000.01 1000.05 1000.14 1000.28
1018.67 1018.43 1018.14 1017.81 1017.45 1017.05 1016.61 1016.13 1015.61 1015.04 1014.42 1013.76 1013.07 1012.36 1011.64 1010.92 1010.21 1009.50 1008.81 1008.12 1007.43 1006.73 1006.02 1005.30 1004.57 1003.84 1003.13 1002.44 1001.80 1001.23 1000.73 1000.31 999.97 999.70 999.50 999.36 999.27 999.22 999.21 999.23 999.28 999.37 999.51
1018.54 1018.24 1017.89 1017.52 1017.12 1016.68 1016.20 1015.68 1015.12 1014.50 1013.84 1013.15 1012.44 1011.72 1011.00 1010.30 1009.60 1008.92 1008.24 1007.57 1006.87 1006.15 1005.41 1004.63 1003.84 1003.05 1002.27 1001.53 1000.85 1000.24 999.73 999.31 998.98 998.74 998.58 998.47 998.42 998.41 998.43 998.48 998.56 998.66 998.80
1018.32 1017.96 1017.57 1017.15 1016.71 1016.24 1015.73 1015.18 1014.58 1013.94 1013.26 1012.55 1011.83 1011.12 1010.41 1009.71 1009.04 1008.37 1007.69 1007.01 1006.29 1005.54 1004.75 1003.92 1003.07 1002.22 1001.40 1000.61 999.90 999.28 998.76 998.35 998.04 997.82 997.68 997.61 997.59 997.60 997.65 997.72 997.82 997.95 998.10
1018.02 1017.61 1017.18 1016.73 1016.26 1015.77 1015.23 1014.66 1014.04 1013.38 1012.69 1011.98 1011.26 1010.54 1009.84 1009.15 1008.48 1007.80 1007.11 1006.40 1005.65 1004.85 1004.01 1003.13 1002.24 1001.35 1000.49 999.69 998.97 998.35 997.84 997.44 997.14 996.94 996.81 996.75 996.74 996.77 996.83 996.91 997.02 997.16 997.33
1017.63 1017.19 1016.73 1016.26 1015.77 1015.26 1014.72 1014.13 1013.51 1012.84 1012.15 1011.43 1010.71 1010.00 1009.29 1008.59 1007.89 1007.19 1006.47 1005.71 1004.91 1004.06 1003.18 1002.26 1001.34 1000.43 999.57 998.78 998.07 997.47 996.97 996.59 996.30 996.10 995.97 995.90 995.88 995.89 995.93 996.01 996.12 996.26 996.43
1017.14 1016.67 1016.20 1015.73 1015.24 1014.72 1014.18 1013.59 1012.97 1012.30 1011.61 1010.89 1010.17 1009.45 1008.72 1008.00 1007.27 1006.52 1005.75 1004.93 1004.08 1003.19 1002.27 1001.33 1000.41 999.51 998.67 997.91 997.24 996.66 996.20 995.82 995.54 995.32 995.16 995.06 994.99 994.96 994.97 995.01 995.10 995.24 995.41
Thickness
5677 5678 5678 5676 5674 5671 5667 5663 5658 5653 5647 5640 5634 5628 5625 5621 5617 5613 5610 5606 5602 5598 5594 5591 5587 5581 5577 5575 5571 5565 5561 5558 5553 5547 5550 5555 5557 5559 5560 5559 5557 5556 5554
5672 5672 5669 5666 5664 5662 5659 5656 5652 5648 5643 5638 5632 5625 5621 5617 5613 5609 5606 5602 5599 5595 5590 5586 5583 5578 5573 5569 5565 5559 5554 5551 5545 5539 5535 5540 5550 5554 5556 5555 5553 5551 5547
5659 5660 5660 5658 5655 5653 5650 5650 5646 5642 5637 5632 5625 5619 5614 5610 5606 5604 5603 5600 5595 5591 5587 5584 5579 5574 5569 5565 5561 5555 5548 5545 5540 5534 5528 5524 5535 5538 5546 5545 5544 5542 5539
5652 5652 5651 5649 5647 5644 5643 5641 5639 5636 5631 5626 5620 5614 5609 5606 5606 5603 5599 5595 5591 5587 5583 5579 5575 5570 5565 5561 5558 5552 5546 5539 5535 5526 5524 5526 5524 5520 5529 5533 5532 5530 5528
5645 5644 5642 5641 5638 5636 5634 5632 5631 5628 5624 5619 5615 5609 5606 5604 5602 5597 5593 5590 5587 5584 5580 5575 5570 5566 5561 5558 5553 5547 5541 5535 5531 5525 5517 5513 5510 5506 5502 5518 5522 5517 5519
5639 5637 5635 5633 5631 5628 5626 5624 5622 5619 5616 5612 5607 5603 5600 5597 5593 5590 5587 5584 5581 5578 5574 5569 5565 5561 5557 5552 5548 5542 5536 5531 5525 5520 5513 5506 5501 5501 5495 5500 5509 5510 5513
5632 5629 5627 5624 5622 5619 5617 5615 5613 5611 5608 5604 5600 5597 5593 5589 5586 5584 5580 5577 5574 5571 5568 5563 5559 5554 5550 5546 5541 5535 5529 5524 5518 5513 5509 5504 5501 5495 5490 5490 5496 5497 5501
5625 5623 5620 5616 5612 5610 5608 5606 5604 5602 5600 5597 5594 5590 5586 5582 5579 5576 5573 5569 5567 5565 5561 5556 5551 5547 5542 5537 5532 5526 5521 5516 5511 5506 5500 5496 5493 5486 5481 5478 5474 5476 5484
5620 5616 5612 5608 5604 5602 5599 5597 5595 5594 5592 5589 5585 5581 5577 5573 5570 5567 5563 5560 5557 5554 5551 5546 5541 5537 5532 5526 5521 5516 5511 5506 5501 5496 5490 5486 5483 5476 5472 5467 5460 5455 5463
5611 5608 5602 5599 5596 5593 5590 5588 5586 5584 5581 5578 5575 5571 5567 5563 5560 5556 5552 5548 5545 5541 5537 5533 5528 5523 5518 5513 5507 5503 5499 5493 5489 5483 5478 5474 5470 5464 5459 5455 5450 5444 5444
5602 5597 5593 5589 5586 5583 5580 5578 5576 5573 5570 5566 5562 5559 5555 5551 5547 5542 5539 5535 5531 5527 5522 5517 5512 5507 5502 5497 5491 5487 5482 5478 5475 5469 5464 5462 5456 5451 5447 5441 5438 5434 5430
5592 5587 5583 5580 5576 5573 5570 5567 5564 5561 5557 5553 5549 5545 5541 5537 5533 5529 5525 5521 5516 5511 5506 5500 5495 5489 5484 5478 5472 5469 5465 5460 5457 5454 5448 5447 5441 5437 5434 5429 5427 5425 5422
5584 5578 5573 5570 5566 5562 5559 5556 5552 5548 5545 5541 5536 5532 5528 5523 5519 5514 5510 5504 5499 5494 5488 5481 5476 5470 5464 5459 5453 5448 5446 5442 5440 5436 5432 5430 5424 5423 5420 5417 5416 5415 5412
5573 5568 5563 5559 5555 5551 5548 5544 5540 5536 5532 5527 5522 5517 5513 5508 5503 5498 5493 5487 5481 5475 5469 5462 5456 5450 5444 5439 5434 5429 5426 5424 5422 5420 5417 5414 5410 5409 5407 5405 5405 5402 5400
5564 5559 5552 5548 5544 5540 5537 5533 5528 5523 5518 5512 5507 5502 5498 5492 5486 5480 5475 5468 5461 5455 5449 5442 5437 5431 5424 5420 5415 5411 5410 5408 5407 5406 5403 5401 5399 5398 5396 5394 5394 5390 5389
5552 5547 5542 5537 5533 5528 5524 5520 5514 5509 5503 5497 5492 5487 5481 5476 5469 5463 5456 5450 5443 5436 5429 5423 5418 5414 5409 5405 5402 5399 5398 5397 5395 5395 5393 5391 5390 5389 5389 5390 5390 5385 5380
5540 5535 5530 5525 5521 5516 5511 5505 5500 5494 5487 5481 5476 5470 5464 5458 5451 5445 5438 5431 5424 5419 5413 5407 5402 5399 5396 5392 5390 5389 5387 5387 5386 5384 5383 5383 5382 5381 5379 5380 5381 5382 5382
5528 5523 5518 5513 5509 5503 5497 5491 5485 5478 5472 5466 5460 5453 5446 5440 5434 5427 5420 5413 5408 5403 5398 5394 5390 5387 5386 5382 5381 5379 5379 5378 5377 5374 5373 5372 5373 5371 5369 5368 5369 5369 5369
5515 5509 5505 5500 5495 5489 5483 5477 5470 5463 5456 5451 5444 5437 5429 5423 5417 5411 5405 5399 5394 5391 5387 5383 5379 5377 5377 5374 5372 5371 5370 5370 5369 5367 5365 5364 5364 5365 5364 5363 5362 5361 5360
5503 5498 5493 5487 5481 5475 5469 5461 5455 5448 5442 5437 5430 5422 5413 5406 5401 5396 5390 5386 5381 5379 5376 5374 5371 5368 5368 5367 5365 5364 5363 5363 5363 5361 5359 5358 5358 5359 5358 5356 5355 5356 5354
5491 5486 5479 5473 5467 5461 5453 5446 5440 5434 5429 5423 5415 5407 5399 5391 5386 5382 5378 5373 5370 5368 5367 5366 5365 5362 5360 5360 5359 5357 5356 5355 5356 5356 5355 5353 5353 5353 5354 5353 5350 5350 5347
5477 5472 5465 5459 5453 5445 5438 5432 5427 5423 5416 5409 5402 5394 5387 5379 5374 5369 5367 5363 5359 5359 5359 5359 5360 5358 5355 5354 5353 5352 5352 5351 5350 5350 5349 5347 5348 5348 5348 5347 5346 5345 5343
5463 5457 5450 5444 5439 5431 5423 5416 5414 5408 5402 5395 5388 5382 5376 5369 5363 5359 5357 5355 5352 5350 5351 5351 5353 5354 5352 5349 5348 5348 5348 5346 5344 5343 5344 5344 5344 5343 5341 5340 5340 5338 5334
5449 5443 5436 5431 5426 5420 5411 5403 5399 5393 5387 5381 5376 5370 5366 5362 5357 5352 5349 5346 5345 5343 5343 5344 5346 5347 5347 5345 5343 5342 5341 5341 5339 5338 5338 5338 5337 5334 5333 5331 5328 5326 5324
5436 5429 5422 5417 5413 5408 5400 5392 5385 5379 5373 5368 5364 5360 5355 5352 5351 5348 5343 5341 5340 5336 5337 5339 5338 5338 5342 5341 5340 5339 5338 5337 5335 5334 5333 5330 5326 5324 5322 5320 5318 5316 5314
5422 5416 5411 5406 5402 5396 5389 5381 5373 5366 5360 5357 5354 5350 5347 5345 5343 5342 5343 5341 5337 5337 5335 5334 5333 5334 5335 5337 5337 5336 5335 5334 5333 5330 5326 5323 5319 5317 5315 5313 5310 5308 5306